Time,TemperatureF,DewpointF,PressureIn,WindDirection,WindDirectionDegrees,WindSpeedMPH,WindSpeedGustMPH,Humidity,HourlyPrecipIn,Conditions,Clouds,dailyrainin,SoftwareType,DateUTC
2013-01-28 00:14:00,28.4,25.0,29.54,NNE,13,0.0,2.0,87,0.00,,,0.00,weatherlink.com 1.10,2013-01-28 07:14:00,
2013-01-28 00:29:00,28.3,25.0,29.55,West,259,0.0,1.0,87,0.00,,,0.00,weatherlink.com 1.10,2013-01-28 07:29:00,
2013-01-28 00:44:00,28.1,25.0,29.54,West,259,1.0,1.0,89,0.00,,,0.00,weatherlink.com 1.10,2013-01-28 07:44:00,
2013-01-28 00:59:00,26.9,24.0,29.55,WSW,248,0.0,2.0,88,0.00,,,0.00,weatherlink.com 1.10,2013-01-28 07:59:00,
2013-01-28 01:14:00,27.0,25.0,29.54,NNW,337,0.0,1.0,90,0.00,,,0.00,weatherlink.com 1.10,2013-01-28 08:14:00,
2013-01-28 01:29:00,27.2,25.0,29.54,East,86,0.0,1.0,91,0.00,,,0.00,weatherlink.com 1.10,2013-01-28 08:29:00,
2013-01-28 01:44:00,27.3,24.0,29.54,NE,56,0.0,3.0,88,0.00,,,0.00,weatherlink.com 1.10,2013-01-28 08:44:00,
2013-01-28 01:59:00,27.2,24.0,29.54,WNW,301,0.0,1.0,89,0.00,,,0.00,weatherlink.com 1.10,2013-01-28 08:59:00,
2013-01-28 02:14:00,25.7,22.0,29.54,WSW,248,2.0,2.0,87,0.00,,,0.00,weatherlink.com 1.10,2013-01-28 09:14:00,
2013-01-28 02:29:00,23.8,21.0,29.54,WSW,250,1.0,1.0,89,0.00,,,0.00,weatherlink.com 1.10,2013-01-28 09:29:00,
2013-01-28 02:44:00,23.2,21.0,29.54,West,280,1.0,2.0,89,0.00,,,0.00,weatherlink.com 1.10,2013-01-28 09:44:00,
2013-01-28 02:59:00,22.9,20.0,29.55,WSW,253,3.0,4.0,89,0.00,,,0.00,weatherlink.com 1.10,2013-01-28 09:59:00,
2013-01-28 03:14:00,22.4,20.0,29.56,West,271,1.0,5.0,90,0.00,,,0.00,weatherlink.com 1.10,2013-01-28 10:14:00,
2013-01-28 03:29:00,19.7,18.0,29.56,West,278,0.0,5.0,91,0.00,,,0.00,weatherlink.com 1.10,2013-01-28 10:29:00,
2013-01-28 03:44:00,-999.0,-99.9,29.55,North,-999,-999.0,-999.0,-999,0.00,,,0.00,weatherlink.com 1.10,2013-01-28 10:44:00,
2013-01-28 03:59:00,-999.0,-99.9,29.55,North,-999,-999.0,-999.0,-999,0.00,,,0.00,weatherlink.com 1.10,2013-01-28 10:59:00,
2013-01-28 04:14:00,-999.0,-99.9,29.55,North,-999,-999.0,-999.0,-999,0.00,,,0.00,weatherlink.com 1.10,2013-01-28 11:14:00,
2013-01-28 04:29:00,-999.0,-99.9,29.53,North,-999,-999.0,-999.0,-999,0.00,,,0.00,weatherlink.com 1.10,2013-01-28 11:29:00,
2013-01-28 04:44:00,-999.0,-99.9,29.53,North,-999,-999.0,-999.0,-999,0.00,,,0.00,weatherlink.com 1.10,2013-01-28 11:44:00,
2013-01-28 04:59:00,-999.0,-99.9,29.53,North,-999,-999.0,-999.0,-999,0.00,,,0.00,weatherlink.com 1.10,2013-01-28 11:59:00,
2013-01-28 05:14:00,-999.0,-99.9,29.53,North,-999,-999.0,-999.0,-999,0.00,,,0.00,weatherlink.com 1.10,2013-01-28 12:14:00,
2013-01-28 05:29:00,-999.0,-99.9,29.53,North,-999,-999.0,-999.0,-999,0.00,,,0.00,weatherlink.com 1.10,2013-01-28 12:29:00,
2013-01-28 05:45:00,-999.0,-99.9,29.53,North,-999,-999.0,-999.0,-999,0.00,,,0.00,weatherlink.com 1.10,2013-01-28 12:45:00,
2013-01-28 06:00:00,-999.0,-99.9,29.52,North,-999,-999.0,-999.0,-999,0.00,,,0.00,weatherlink.com 1.10,2013-01-28 13:00:00,
2013-01-28 06:15:00,-999.0,-99.9,29.52,North,-999,-999.0,-999.0,-999,0.00,,,0.00,weatherlink.com 1.10,2013-01-28 13:15:00,
2013-01-28 06:30:00,-999.0,-99.9,29.52,North,-999,-999.0,-999.0,-999,0.00,,,0.00,weatherlink.com 1.10,2013-01-28 13:30:00,
2013-01-28 06:45:00,-999.0,-99.9,29.53,North,-999,-999.0,-999.0,-999,0.00,,,0.00,weatherlink.com 1.10,2013-01-28 13:45:00,
2013-01-28 07:00:00,-999.0,-99.9,29.55,North,-999,-999.0,-999.0,-999,0.00,,,0.00,weatherlink.com 1.10,2013-01-28 14:00:00,
2013-01-28 07:15:00,-999.0,-99.9,29.56,North,-999,-999.0,-999.0,-999,0.00,,,0.00,weatherlink.com 1.10,2013-01-28 14:15:00,
2013-01-28 07:30:00,-999.0,-99.9,29.56,North,-999,-999.0,-999.0,-999,0.00,,,0.00,weatherlink.com 1.10,2013-01-28 14:30:00,
2013-01-28 07:45:00,-999.0,-99.9,29.55,North,-999,-999.0,-999.0,-999,0.00,,,0.00,weatherlink.com 1.10,2013-01-28 14:45:00,
2013-01-28 08:00:00,-999.0,-99.9,29.55,North,-999,-999.0,-999.0,-999,0.00,,,0.00,weatherlink.com 1.10,2013-01-28 15:00:00,
2013-01-28 08:15:00,-999.0,-99.9,29.55,North,-999,-999.0,-999.0,-999,0.00,,,0.00,weatherlink.com 1.10,2013-01-28 15:15:00,
2013-01-28 08:30:00,29.8,28.0,29.57,WNW,293,1.0,7.0,93,0.00,,,0.00,weatherlink.com 1.10,2013-01-28 15:30:00,
2013-01-28 08:45:00,30.4,29.0,29.59,NNW,336,1.0,2.0,93,0.00,,,0.00,weatherlink.com 1.10,2013-01-28 15:45:00,
2013-01-28 09:11:00,30.3,28.0,29.59,NW,304,2.0,10.0,92,0.00,,,0.00,weatherlink.com 1.10,2013-01-28 16:11:00,
2013-01-28 09:30:00,30.5,28.0,29.60,WSW,240,4.0,10.0,91,0.00,,,0.00,weatherlink.com 1.10,2013-01-28 16:30:00,
2013-01-28 09:45:00,30.4,28.0,29.60,NNE,21,6.0,11.0,91,0.00,,,0.00,weatherlink.com 1.10,2013-01-28 16:45:00,
2013-01-28 10:00:00,30.5,28.0,29.60,North,6,5.0,10.0,91,0.00,,,0.00,weatherlink.com 1.10,2013-01-28 17:00:00,
2013-01-28 10:15:00,30.6,28.0,29.60,NNE,20,11.0,11.0,90,0.00,,,0.00,weatherlink.com 1.10,2013-01-28 17:15:00,
2013-01-28 10:30:00,30.8,28.0,29.59,North,354,14.0,14.0,90,0.00,,,0.00,weatherlink.com 1.10,2013-01-28 17:30:00,
2013-01-28 10:45:00,30.8,28.0,29.60,NE,43,4.0,12.0,89,0.00,,,0.00,weatherlink.com 1.10,2013-01-28 17:45:00,
2013-01-28 11:01:00,30.8,28.0,29.61,West,266,1.0,8.0,89,0.00,,,0.00,weatherlink.com 1.10,2013-01-28 18:01:00,
2013-01-28 11:16:00,30.8,28.0,29.61,NW,326,6.0,9.0,88,0.00,,,0.00,weatherlink.com 1.10,2013-01-28 18:16:00,
2013-01-28 11:31:00,31.0,28.0,29.60,NW,319,6.0,9.0,88,0.00,,,0.00,weatherlink.com 1.10,2013-01-28 18:31:00,
2013-01-28 11:46:00,31.0,28.0,29.61,NW,312,7.0,9.0,88,0.00,,,0.00,weatherlink.com 1.10,2013-01-28 18:46:00,
2013-01-28 12:01:00,31.6,28.0,29.59,NW,317,4.0,11.0,87,0.00,,,0.00,weatherlink.com 1.10,2013-01-28 19:01:00,
2013-01-28 12:16:00,32.4,28.0,29.58,NW,305,3.0,10.0,85,0.00,,,0.00,weatherlink.com 1.10,2013-01-28 19:16:00,
2013-01-28 12:31:00,33.3,29.0,29.58,NNW,330,5.0,16.0,85,0.00,,,0.00,weatherlink.com 1.10,2013-01-28 19:31:00,
2013-01-28 12:46:00,33.1,28.0,29.58,NW,312,9.0,13.0,82,0.00,,,0.00,weatherlink.com 1.10,2013-01-28 19:46:00,
2013-01-28 13:01:00,33.0,28.0,29.59,NNE,33,1.0,11.0,83,0.00,,,0.00,weatherlink.com 1.10,2013-01-28 20:01:00,
2013-01-28 13:16:00,33.3,28.0,29.59,NE,44,3.0,8.0,81,0.00,,,0.00,weatherlink.com 1.10,2013-01-28 20:16:00,
2013-01-28 13:31:00,33.5,28.0,29.59,WSW,243,3.0,10.0,81,0.00,,,0.00,weatherlink.com 1.10,2013-01-28 20:31:00,
2013-01-28 13:46:00,33.1,28.0,29.60,NE,44,4.0,10.0,81,0.00,,,0.00,weatherlink.com 1.10,2013-01-28 20:46:00,
2013-01-28 14:01:00,32.3,29.0,29.60,NW,306,5.0,9.0,87,0.00,,,0.00,weatherlink.com 1.10,2013-01-28 21:01:00,
2013-01-28 14:16:00,31.5,29.0,29.61,NNW,330,2.0,9.0,89,0.00,,,0.00,weatherlink.com 1.10,2013-01-28 21:16:00,
2013-01-28 14:31:00,31.1,29.0,29.62,WNW,302,4.0,7.0,91,0.00,,,0.00,weatherlink.com 1.10,2013-01-28 21:31:00,
2013-01-28 14:46:00,30.9,29.0,29.62,NNW,330,1.0,6.0,92,0.00,,,0.00,weatherlink.com 1.10,2013-01-28 21:46:00,
2013-01-28 15:01:00,30.7,29.0,29.62,NE,47,4.0,8.0,92,0.00,,,0.00,weatherlink.com 1.10,2013-01-28 22:01:00,
2013-01-28 15:16:00,30.7,29.0,29.63,NNE,22,1.0,5.0,93,0.00,,,0.00,weatherlink.com 1.10,2013-01-28 22:16:00,
2013-01-28 15:31:00,30.5,29.0,29.65,NNE,21,2.0,6.0,92,0.00,,,0.00,weatherlink.com 1.10,2013-01-28 22:31:00,
2013-01-28 15:46:00,30.6,29.0,29.65,NW,316,2.0,4.0,92,0.00,,,0.00,weatherlink.com 1.10,2013-01-28 22:46:00,
2013-01-28 16:01:00,30.6,29.0,29.64,NW,319,3.0,5.0,92,0.00,,,0.00,weatherlink.com 1.10,2013-01-28 23:01:00,
2013-01-28 16:16:00,30.4,28.0,29.65,WNW,300,2.0,3.0,92,0.00,,,0.00,weatherlink.com 1.10,2013-01-28 23:16:00,
2013-01-28 16:31:00,30.4,28.0,29.65,West,276,1.0,3.0,92,0.00,,,0.00,weatherlink.com 1.10,2013-01-28 23:31:00,
2013-01-28 16:46:00,30.2,29.0,29.66,WNW,285,1.0,4.0,93,0.00,,,0.00,weatherlink.com 1.10,2013-01-28 23:46:00,
2013-01-28 17:01:00,29.8,28.0,29.66,WNW,293,4.0,7.0,92,0.00,,,0.00,weatherlink.com 1.10,2013-01-29 00:01:00,
2013-01-28 17:16:00,29.6,27.0,29.68,NW,323,3.0,6.0,91,0.00,,,0.00,weatherlink.com 1.10,2013-01-29 00:16:00,
2013-01-28 17:31:00,29.4,27.0,29.70,WSW,250,1.0,4.0,92,0.00,,,0.00,weatherlink.com 1.10,2013-01-29 00:31:00,
2013-01-28 17:46:00,29.3,27.0,29.72,West,259,1.0,3.0,91,0.00,,,0.00,weatherlink.com 1.10,2013-01-29 00:46:00,
2013-01-28 18:01:00,29.0,27.0,29.71,WNW,302,0.0,2.0,91,0.00,,,0.00,weatherlink.com 1.10,2013-01-29 01:01:00,
2013-01-28 18:16:00,29.0,27.0,29.70,WNW,284,1.0,2.0,91,0.00,,,0.00,weatherlink.com 1.10,2013-01-29 01:16:00,
2013-01-28 18:31:00,28.8,27.0,29.71,WNW,294,1.0,2.0,91,0.00,,,0.00,weatherlink.com 1.10,2013-01-29 01:31:00,
2013-01-28 18:46:00,28.7,26.0,29.73,WSW,245,1.0,3.0,91,0.00,,,0.00,weatherlink.com 1.10,2013-01-29 01:46:00,
2013-01-28 19:01:00,28.6,26.0,29.72,West,269,1.0,3.0,91,0.00,,,0.00,weatherlink.com 1.10,2013-01-29 02:01:00,
2013-01-28 19:16:00,28.7,26.0,29.71,NNW,334,2.0,3.0,91,0.00,,,0.00,weatherlink.com 1.10,2013-01-29 02:16:00,
2013-01-28 19:31:00,28.6,26.0,29.73,WSW,256,1.0,3.0,91,0.00,,,0.00,weatherlink.com 1.10,2013-01-29 02:31:00,
2013-01-28 19:46:00,28.7,26.0,29.72,WNW,301,3.0,4.0,91,0.00,,,0.00,weatherlink.com 1.10,2013-01-29 02:46:00,
2013-01-28 20:01:00,28.9,26.0,29.73,WNW,291,3.0,4.0,89,0.00,,,0.00,weatherlink.com 1.10,2013-01-29 03:01:00,
2013-01-28 20:16:00,28.9,26.0,29.73,WNW,290,1.0,4.0,89,0.00,,,0.00,weatherlink.com 1.10,2013-01-29 03:16:00,
2013-01-28 20:31:00,28.8,26.0,29.73,WNW,288,1.0,3.0,88,0.00,,,0.00,weatherlink.com 1.10,2013-01-29 03:31:00,
2013-01-28 20:46:00,28.6,26.0,29.73,West,260,1.0,1.0,89,0.00,,,0.00,weatherlink.com 1.10,2013-01-29 03:46:00,
2013-01-28 21:01:00,28.3,26.0,29.73,West,266,0.0,2.0,91,0.00,,,0.00,weatherlink.com 1.10,2013-01-29 04:01:00,
2013-01-28 21:16:00,28.1,26.0,29.73,WNW,283,2.0,2.0,92,0.00,,,0.00,weatherlink.com 1.10,2013-01-29 04:16:00,
2013-01-28 21:31:00,28.0,26.0,29.73,West,276,0.0,1.0,92,0.00,,,0.00,weatherlink.com 1.10,2013-01-29 04:31:00,
2013-01-28 21:46:00,27.6,26.0,29.73,West,277,0.0,0.0,92,0.00,,,0.00,weatherlink.com 1.10,2013-01-29 04:46:00,
2013-01-28 22:16:00,27.7,26.0,29.74,West,277,0.0,0.0,92,0.00,,,0.00,weatherlink.com 1.10,2013-01-29 05:16:00,
2013-01-28 22:31:00,27.9,26.0,29.73,WSW,252,0.0,1.0,92,0.00,,,0.00,weatherlink.com 1.10,2013-01-29 05:31:00,
2013-01-28 22:46:00,27.8,26.0,29.73,West,276,0.0,1.0,92,0.00,,,0.00,weatherlink.com 1.10,2013-01-29 05:46:00,
2013-01-28 23:01:00,27.7,26.0,29.74,West,262,1.0,1.0,92,0.00,,,0.00,weatherlink.com 1.10,2013-01-29 06:01:00,
2013-01-28 23:16:00,27.7,26.0,29.73,West,260,0.0,1.0,92,0.00,,,0.00,weatherlink.com 1.10,2013-01-29 06:16:00,
2013-01-28 23:31:00,27.5,26.0,29.72,WNW,293,1.0,2.0,92,0.00,,,0.00,weatherlink.com 1.10,2013-01-29 06:31:00,
2013-01-28 23:46:00,26.8,25.0,29.73,WSW,256,0.0,1.0,91,0.00,,,0.00,weatherlink.com 1.10,2013-01-29 06:46:00,